Regional Weather Roundup
Issued by NWS Mobile, AL

Home | Current Version | Previous Version | Text Only | Print | Product List | Glossary On
Versions: 1 2 3 4 5 6 7 8 9 10 11 12 13 14 15 16 17 18 19 20 21 22 23 24 25 26 27 28 29 30 31 32 33 34 35 36 37 38 39 40 41 42 43 44 45 46 47 48 49 50
000
ASUS44 KMOB 301817
RWRMOB
REGIONAL WEATHER ROUNDUP
NATIONAL WEATHER SERVICE MOBILE AL
100 PM CDT THU JUL 30 2015

ALZ061>064-301900-
COASTAL ALABAMA


CITY           SKY/WX    TMP DP  RH WIND       PRES   REMARKS
MOBILE REG APT MOSUNNY   93  77  59 N12       29.98F HX 107
6HR MIN TEMP:  77; 6HR MAX TEMP:  93;

BROOKLEY FIELD SUNNY     95  77  55 N12       29.97F HX 109
6HR MIN TEMP:  79; 6HR MAX TEMP:  95;

GULF SHORES    CLEAR     91  79  67 N8        29.95F HX 108
6HR MIN TEMP:  78; 6HR MAX TEMP:  91;


$$

ALZ051>060-301900-
INTERIOR SOUTHWEST AND SOUTH CENTRAL ALABAMA


CITY           SKY/WX    TMP DP  RH WIND       PRES   REMARKS
ANDALUSIA/OPP  MOSUNNY   98  76  49 VRB6      29.95F HX 112
6HR MIN TEMP:  80; 6HR MAX TEMP:  99;

EVERGREEN      NOT AVBL
FLORALA        MOCLDY    93  76  57 VRB6      29.97F HX 105
6HR MIN TEMP:  76; 6HR MAX TEMP:  93;

GREENVILLE     MOCLDY    95  72  47 N10       29.96F HX 103
6HR MIN TEMP:  77; 6HR MAX TEMP:  98;


$$

FLZ001>006-301900-
WESTERN FLORIDA PANHANDLE


CITY           SKY/WX    TMP DP  RH WIND       PRES   REMARKS
CRESTVIEW      MOSUNNY   93  78  61 N7        29.96F HX 108
6HR MIN TEMP:  77; 6HR MAX TEMP:  94;

DESTIN         MOSUNNY   92  77  61 CALM      29.94F HX 105
6HR MIN TEMP:  80; 6HR MAX TEMP:  92; 6HR PCP: TRACE;

DUKE FIELD     PTSUNNY   94  76  57 N6        29.94F HX 107
6HR MIN TEMP:  76; 6HR MAX TEMP:  94;

MARY ESTHER    MOSUNNY   90  77  66 S7        29.93F HX 102
6HR MIN TEMP:  78; 6HR MAX TEMP:  92; 6HR PCP: TRACE;

MILTON         MOCLDY    96  78  56 N9        29.95F HX 112
6HR MIN TEMP:  78; 6HR MAX TEMP:  96;

PENSACOLA      SUNNY     92  78  63 N8        29.94F HX 107
6HR MIN TEMP:  78; 6HR MAX TEMP:  92;

NAS PENSACOLA  PTSUNNY   94  76  55 VRB5      29.94  HX 106
6HR MIN TEMP:  78; 6HR MAX TEMP:  94;

VALPARAISO     MOSUNNY   93  76  56 NW6       29.93F HX 105
6HR MIN TEMP:  78; 6HR MAX TEMP:  93; 6HR PCP:  0.01;


$$

...MARINE OBSERVATIONS...

STATION/POSITION TIME  SKY/WX   TEMP    WIND        PRES    VSBY
                                AIR SEA DIR/SP/G
                 (UTC)          (F)     (DEG/KT/KT) (MB)    (MI)
PASCAGOULA       1700            90      10/  9/ 12 1015.4F
PETIT BOIS ISL   1700            90      50/  5/  6 1016.0F
E DAUPHIN ISLAND 1800            87     360/ 11/ 13 1014.3F
MIDDLE BAY LIGHT 1700            87     360/ 14     1014.2F
USCG MOBILE BAY  1700            90 84  360/  9/ 12 1014.3F
STATE DOCKS      1700            93 83              1015.0F
MEAHER PARK      1800            90     330/  8     1013.5F
12 S ORANGE BCH  1750            85 86  300/  2/  2 1013.9F
WVE H/P(F/S)=  1/ 5

PENSACOLA BAY    1700            92 84   30/  6/ 11 1014.9F
64 S DAUPHIN ISL 1750            85 90  360/  6/  8 1015.4F
WVE H/P(F/S)=  1/ 4

67 S FORT MORGAN 1730            86     330/  8     1015.2F
115 SE PENSACOLA 1750            82 87  320/ 14/ 16 1015.4F
WVE H/P(F/S)=  2/ 4

MID GULF/42001   1750            81 86  210/ 12/ 14 1017.9F
WVE H/P(F/S)=  1/ 3

EAST GULF/42003  1750            83 85  290/ 10/ 12 1016.9F
WVE H/P(F/S)=  2/ 7


$$

...NEARBY LOCATIONS

CITY           SKY/WX    TMP DP  RH WIND       PRES   REMARKS
GULFPORT       MOSUNNY   94  76  55 N9        29.97F HX 106
6HR MIN TEMP:  77; 6HR MAX TEMP:  95;

BILOXI         MOSUNNY   94  78  59 N8        29.97F HX 109
6HR MIN TEMP:  78; 6HR MAX TEMP:  94;

PASCAGOULA     MOSUNNY   91  77  63 NW7       29.97F HX 104
6HR MIN TEMP:  77; 6HR MAX TEMP:  93;

HATTIESBURG    MOSUNNY   97  76  50 N6        29.99F HX 110
6HR MIN TEMP:  77; 6HR MAX TEMP:  97;

LAUREL         MOSUNNY   93  73  52 NE8       30.02F HX 102
6HR MIN TEMP:  75; 6HR MAX TEMP:  97; 6HR PCP:  0.01;

MERIDIAN       MOSUNNY   93  78  61 N8        30.01F HX 108
6HR MIN TEMP:  75; 6HR MAX TEMP:  95;

MERIDIAN NAS   PTSUNNY   92  78  63 N7        30.02F HX 107
6HR MIN TEMP:  78; 6HR MAX TEMP:  92;

MONTGOMERY     MOSUNNY   97  75  49 NE6       29.96F HX 109
6HR MIN TEMP:  78; 6HR MAX TEMP:  97;

MAXWELL AFB    SUNNY     95  76  54 VRB3      29.96F HX 108
6HR MIN TEMP:  77; 6HR MAX TEMP:  95;

TROY           MOSUNNY   98  74  45 NE12      29.96F HX 109
6HR MIN TEMP:  78; 6HR MAX TEMP:  98;

FORT RUCKER    PTSUNNY   94  75  54 CALM      29.94F HX 105
6HR MIN TEMP:  78; 6HR MAX TEMP:  95;

DALEVILLE      SUNNY     93  77  59 NE8       29.95F HX 107
6HR MIN TEMP:  76; 6HR MAX TEMP:  93;

DOTHAN         SUNNY     94  75  54 NE8       29.99F HX 105
6HR MIN TEMP:  78; 6HR MAX TEMP:  94;


$$

...OTHER SURROUNDING LOCATIONS...

CITY           SKY/WX    TMP DP  RH WIND       PRES   REMARKS
BIRMINGHAM     MOSUNNY   92  77  61 N13       30.04F HX 105
6HR MIN TEMP:  76; 6HR MAX TEMP:  92;

TUSCALOOSA     MOSUNNY   93  76  57 NW6       30.00F HX 105
6HR MIN TEMP:  75; 6HR MAX TEMP:  95;

COLUMBUS GA    CLOUDY    92  71  50 E5        29.95F HX  98
6HR MIN TEMP:  78; 6HR MAX TEMP:  95;

PANAMA CITY    NOT AVBL
TALLAHASSEE    PTSUNNY   92  76  59 E3        29.94F HX 104
6HR MIN TEMP:  78; 6HR MAX TEMP:  93;

BATON ROUGE    SUNNY     96  75  50 E6        30.01F HX 108
6HR MIN TEMP:  78; 6HR MAX TEMP:  98;

NEW ORLEANS    PTSUNNY   92  74  55 N9        30.00F HX 101
6HR MIN TEMP:  81; 6HR MAX TEMP:  93;

SLIDELL        MOSUNNY   92  78  63 VRB3      29.99F HX 107
6HR MIN TEMP:  76; 6HR MAX TEMP:  92; 6HR PCP:  0.33;

JACKSON        MOSUNNY   99  73  43 N9G18     30.02F HX 109
6HR MIN TEMP:  79; 6HR MAX TEMP:  99;

MCCOMB         MOSUNNY   96  76  52 VRB5      30.02F HX 109
6HR MIN TEMP:  76; 6HR MAX TEMP:  95;


$$

...SURROUNDING MARINE OBSERVATIONS...

STATION/POSITION TIME  SKY/WX   TEMP    WIND        PRES    VSBY
                                AIR SEA DIR/SP/G
                 (UTC)          (F)     (DEG/KT/KT) (MB)    (MI)
WAVELAND         1700            89 87  360/ 10/ 11 1016.2F
PASCAGOULA RGN A 1700            92      30/  8/ 12 1014.9F
PASCAGOULA PORT  1700               87                N/A
GRAND ISLE       1700            88 89   30/  5/  7 1016.1F
SOUTHWEST PASS   1800            87     350/  5/  6 1016.2F
PILOT STATION E  1700            91 87  360/  8/  9 1016.5F
SHELL BEACH      1700            85 88   10/  8/ 11 1015.5F
PANAMA CITY      1700            88 84  320/  4/  5 1013.8F
APALACHICOLA     1700            79 88  100/  8/ 12 1014.8F
TYNDALL TOWER C  1800            78     200/ 22/ 23 1014.9F
S APLCHCLA/42036 1750            83 85  270/ 12/ 14 1015.1F
WVE H/P(F/S)=  2/ 4


$$



USA.gov is the U.S. government's official web portal to all federal, state and local government web resources and services.